Regional Weather Roundup
Issued by NWS

Home | Current Version | Previous Version | Text Only | Print | Product List | Glossary On
Versions: 1 2 3 4 5 6 7 8 9 10 11 12 13 14 15 16 17 18 19 20 21 22 23 24 25 26 27 28 29 30 31 32 33 34 35 36 37 38 39 40 41 42 43 44 45 46 47 48 49 50
000
ASUS43 KMPX 111410
RWRMN
WEATHER ROUNDUP FOR MINNESOTA
NATIONAL WEATHER SERVICE TWIN CITIES/CHANHASSEN MN
800 AM CST SUN DEC 11 2016


NOTE: "FAIR" INDICATES FEW OR NO CLOUDS BELOW 12,000 FEET WITH NO
SIGNIFICANT WEATHER AND/OR OBSTRUCTIONS TO VISIBILITY. N/A MEANS
CURRENT SKY AND/OR WEATHER CONDITIONS ARE NOT AVAILABLE.

MNZ060>063-068>070-111500-
   Twin Cities Metro

CITY           SKY/WX    TMP DP  RH WIND       PRES   REMARKS
TWIN CITIES    LGT SNOW  17  13  84 E8        29.95F VSB 3/4 WCI   7
ST PAUL        LGT SNOW  17  15  92 E5        29.97F VSB 3/4 WCI  10
CRYSTAL        LGT SNOW  16  11  80 NE6       29.95F VSB 1   WCI   7
LAKEVILLE      SNOW      16  14  93 E8        29.93F VSB 1/2 WCI   5
EDEN PRAIRIE   SNOW      17  13  84 NE9       29.92F VSB 1/2 WCI   6
SOUTH ST PAUL  LGT SNOW  18  15  88 CALM      29.95F VSB 3/4
LAKE ELMO      LGT SNOW  18  16  93 NE8       29.96F VSB 3/4 WCI   7
$$
MNZ001>005-007-008-013>017-022>024-027-028-111500-
   Northwest Minnesota

CITY           SKY/WX    TMP DP  RH WIND       PRES   REMARKS
BEMIDJI        LGT SNOW   2  -2  85 E7        30.01F VSB 1   WCI -11
HALLOCK        MOCLDY     1  -4  78 E7        30.10R WCI -11
ROSEAU         FAIR       0  -6  78 E8        30.09F WCI -15
WARROAD        FAIR       1  -2  85 E13       30.09F WCI -16
THIEF RVR FALL LGT SNOW   3  -1  83 E13       30.04  FOG     WCI -14
CROOKSTON      LGT SNOW   7   1  78 E10       30.05F WCI  -8
FOSSTON        LGT SNOW   3   0  85 E9        30.00F WCI -11
DETROIT LAKES  LGT SNOW  10   7  85 E6        29.96F WCI   1
MOORHEAD       LGT SNOW   9   7  92 CALM      29.99F
PARK RAPIDS    LGT SNOW   7   1  76 NE7       29.97F WCI  -5
$$
MNZ006-009>011-018-025>026-111500-
   North Central Minnesota

CITY           SKY/WX    TMP DP  RH WIND       PRES   REMARKS
BAUDETTE       FAIR      -2  -7  79 E7        30.08F WCI -15
INTL FALLS     FAIR       0  -5  79 E5        30.09F WCI -10
WASKISH        FAIR      -2  -6  84 E8        30.06F WCI -17
BIG FORK       FAIR       0  -6  78 NE5       30.05F WCI -10
LONGVILLE      LGT SNOW   5   1  85 CALM      30.01F
GRAND RAPIDS   LGT SNOW   5   1  85 NE5       30.04  VSB 3/4 WCI  -4
CRANE LAKE     LGT SNOW  -9 -13  84 CALM      30.13F
ORR            FAIR      -8 -11  84 CALM      30.05F
COOK           FLURRIES  -4  -8  84 CALM      30.06F
$$
MNZ012-019>021-037-111500-
   Northeast Minnesota

CITY           SKY/WX    TMP DP  RH WIND       PRES   REMARKS
DULUTH         LGT SNOW  14   8  77 SE13      30.02  WCI   0
ELY            FLURRIES   0  -2  92 CALM      30.06F
HIBBING        CLOUDY     3   0  87 CALM      30.04S
EVELETH        FLURRIES   5   1  81 NE6       30.05F WCI  -6
DULUTH HARBOR  LGT SNOW  18  12  79 E14G20    30.10S WCI   4
TWO HARBORS    CLOUDY    16  10  79 N5        30.03F WCI   9
SILVER BAY     LGT SNOW  12   9  85 N6        30.04F WCI   3
GRAND MARAIS     N/A     15   6  67 N10G17    30.13  WCI   2
G MARAIS ARPRT FLURRIES   3  -2  78 N7        30.03F WCI  -9
$$
MNZ029>031-032-039>041-046>048-054>057-064-111500-
   West Central Minnesota

CITY           SKY/WX    TMP DP  RH WIND       PRES   REMARKS
FERGUS FALLS   LGT SNOW  10   7  85 E8        29.99F WCI  -1
WHEATON        LGT SNOW  14  12  92 E6        29.96F WCI   5
MORRIS         LGT SNOW  12  10  92 E14       29.91F WCI  -3
ALEXANDRIA     LGT SNOW  12   8  84 E13       29.91F FOG     WCI  -3
ELBOW LAKE     LGT SNOW  11   9  89 E13       29.92F WCI  -4
WADENA         LGT SNOW   7   3  85 NE7       29.95F WCI  -5
GLENWOOD       LGT SNOW  10   9  92 NE15      29.91F WCI  -6
APPLETON       FLURRIES  14  10  85 E9        29.92F WCI   2
BENSON         FLURRIES  14   9  79 E9G16     29.91F WCI   2
ORTONVILLE     LGT SNOW  12   9  85 CALM      29.92F
MADISON        FLURRIES  16  12  86 E6        29.92F WCI   7
WILLMAR        FLURRIES  16  10  79 E12       29.92F WCI   3
$$
MNZ033>034-036-042>043-049>051-058-059-111500-
   Central Minnesota

CITY           SKY/WX    TMP DP  RH WIND       PRES   REMARKS
ST CLOUD       LGT SNOW  13  10  88 NE7       29.95F FOG     WCI   3
PAYNESVILLE    LGT SNOW  13  13  98 NE8       29.93F WCI   2
AITKIN         LGT SNOW  12   7  79 NE6       29.99F WCI   3
PINE RIVER     LGT SNOW   7   3  85 CALM      30.03F VSB 1
BRAINERD       LGT SNOW  10   7  87 NE7       29.98F VSB 1   WCI  -1
LONG PRAIRIE   LGT SNOW  12   9  85 N7        29.94F WCI   2
LITTLE FALLS   LGT SNOW  12   9  85 NE3       29.97F
LITCHFIELD     LGT SNOW  16  12  86 E9        29.92F WCI   4
BUFFALO        LGT SNOW  15  12  89 NE6       29.96F WCI   6
MAPLE LAKE     LGT SNOW  15  13  92 NE8       29.95F WCI   4
HUTCHINSON     LGT SNOW  16  13  89 NE12      29.92F WCI   3
$$
MNZ037-044-045-052-053-111500-
   East Central Minnesota

CITY           SKY/WX    TMP DP  RH WIND       PRES   REMARKS
PRINCETON      LGT SNOW  16  10  79 NE5       29.96F VSB 1   WCI   9
MORA           LGT SNOW  14  10  85 E5        30.00F WCI   6
CAMBRIDGE      LGT SNOW  16   9  73 NE5       29.97F WCI   9
RUSH CITY      CLOUDY    14  10  85 NE6       30.00F WCI   5
MOOSE LAKE     LGT SNOW  12   9  85 NE5       30.01F WCI   4
HINCKLEY       LGT SNOW  14  12  92 NE6       30.00F VSB 1   WCI   5
CLOQUET        LGT SNOW  10   7  85 E7        30.02S WCI   0
MCGREGOR       CLOUDY    12   9  85 E7        30.02S VSB 1   WCI   2
$$
MNZ071>073-080-081-089-090-097-098-111500-
   Southwest Minnesota

CITY           SKY/WX    TMP DP  RH WIND       PRES   REMARKS
MONTEVIDEO     FLURRIES  14  12  92 SE13      29.92F WCI   0
GRANITE FALLS  LGT SNOW  17  13  87 NE10      29.91F WCI   4
CANBY          CLOUDY    15  13  91 CALM      29.91F
MARSHALL       FLURRIES  15  12  88 E9        29.88F WCI   3
REDWOOD FALLS  LGT SNOW  16  12  84 NE8       29.90F FOG     WCI   5
OLIVIA         LGT SNOW  18  14  86 E9        29.89F WCI   6
PIPESTONE      CLOUDY    16  14  93 NE8       29.81F WCI   5
WINDOM         LGT SNOW  18  16  93 MISG      29.83F
WORTHINGTON    LGT SNOW  19  18  93 NE8       29.82S FOG     WCI   9
JACKSON        LGT SNOW  19  18  93 NE8       29.83S VSB 1   WCI   9
TRACY          CLOUDY    16  15  93 NE8       29.87S WCI   6
SLAYTON        CLOUDY    16  15  95 NE6       29.84F WCI   8
$$
MNZ065>067-074>077-082>085-091>093-111500-
   South Central Minnesota

CITY           SKY/WX    TMP DP  RH WIND       PRES   REMARKS
MANKATO        LGT SNOW  18  15  88 E10       29.90S FOG     WCI   6
NEW ULM        LGT SNOW  16  14  93 E7        29.89F VSB 1   WCI   6
ST JAMES       LGT SNOW  18  18 100 NE8       29.87F WCI   7
FAIRMONT       SNOW      21  19  93 E9        29.84  VSB 1/2 WCI  11
GLENCOE        LGT SNOW  17  16  95 NE6       29.92F WCI   9
FARIBAULT      CLOUDY    18  16  93 E8        29.90  WCI   7
OWATONNA       LGT SNOW  18  14  86 E13       29.87F WCI   4
WASECA         CLOUDY    19  18  93 E10       29.89F WCI   8
ALBERT LEA     CLOUDY    25  23  93 E7        29.86S FOG     WCI  17
$$
MNZ078>079-086>088-094>096-111500-
   Southeast Minnesota

CITY           SKY/WX    TMP DP  RH WIND       PRES   REMARKS
ROCHESTER      LGT SNOW  18  16  92 E9        29.89F FOG     WCI   7
RED WING       LGT SNOW  19  16  86 E7        29.95F WCI  10
STANTON        LGT SNOW  19  16  88 E7        29.92S WCI   9
DODGE CENTER   FLURRIES  18  16  93 E10       29.88F WCI   6
WINONA         LGT SNOW  21  19  93 SE3       29.97F
AUSTIN         LGT SNOW  21  18  86 E9        29.86F WCI  11
PRESTON        LGT SNOW  19  17  92 E5        29.89F VSB 3/4 WCI  12
$$
ABBREVIATIONS USED IN REMARKS
   TC - TEMPERATURES IN CELSIUS
  WCI - WIND CHILL INDEX
   HX - HEAT INDEX
  VSB - VISIBILITY
$$




USA.gov is the U.S. government's official web portal to all federal, state and local government web resources and services.